PSLV R/B

Satellite information

Favourite Embed

Satellite Type and Status

ROCKET BODYIN ORBIT

Key statistics

Satellite PSLV R/B at a glance.

Uptime

6817

Days in orbit

Revolutions

≈ 15.0

Per day

Orbit

SSO

Sun Synchronous Orbit

Inclination

98.0

Latest

Satellite identification and parameters

Extended collection of information and parameters for PSLV R/B.

Object identification

Identified? True

Debris? False

Object name: PSLV R/B

International designator: 2007-001E

Object number (NORAD): 29713

Object ID (CCSDS): 29713

Country: INDIA (IND)

Current information (Y/N): Y

RCS size: LARGE

Orbital parameters

Period: 96.225 minutes

Inclination: 98.0482 deg

SMA: 6955.897 km

Apoapsis: 590.975 km

Periapsis: 564.549 km

RAAN: 270.962 deg

Eccentricy: 0.00189955

Argument of periapsis: 323.6072 deg

Mean anomaly: 36.3856 deg

Mean motion: 14.96487221 rev/day

Mean motion (dot): 0.00003805 rev/day2

B* drag term: 0.0003394029 1/REarth

Two-line elements (TLE)

Creation date: Sept. 8, 2025, 6:18 p.m.

Reference frame: TEME

Reference center: EARTH

Epoch: Sept. 8, 2025, 2:36 p.m. UTC

TLE line 0: 0 PSLV R/B

TLE line 1: 1 29713U 07001E 25251.60861922 .00003805 00000-0 33940-3 0 9997

TLE line 2: 2 29713 98.0482 270.9620 0018995 323.6072 36.3856 14.96487221 10776

Live tracking on map

Real-time ground track for satellite PSLV R/B.

In-orbit conjunctions

A list of the most updated potential collisions computed for object PSLV R/B.

Target Orbit TCA Probability of collision Miss distance Type
COSMOS 375 MEO 2025-04-09 14:01:24 0.0009614406 161.0 (m) PAYLOAD

Associated space launch

Indian Earth observation and re-entry technology satellites

PSLV R/B was lifted into orbit during the mission ‘PSLV | Cartosat 2 & SRE 1’, on board a PSLV space rocket.

The launch took place on Jan. 10, 2007, 3:54 a.m. from Satish Dhawan Space Centre First Launch Pad.

For more information about the launch, click the button.

Launch to space PSLV | Cartosat 2 & SRE 1
PSLV | Cartosat 2 & SRE 1

Agency: N/A

Status: Launch Successful

Launch date: Jan. 10, 2007, 3:54 a.m. UTC

Rocket: PSLV

Launch pad: Satish Dhawan Space Centre First Launch Pad

Location: Satish Dhawan Space Centre, India

...

Latest news about this satellite

There are no fresh news available about this satellite. Check back as we update our databases every day.


Newsletter sign-up

Weekly statistics, charts and insights to help you stay on top of the space industry.